sat.trackr.live / text

‹ back to catalog

STARLINK-35943

NORAD 66927 · 2025-286C

PAYLOAD ACTIVE UNKNOWN

§ Identity

Operator
Country
US
Launch date
2025-12-07
Launch site
AFWTR
Launch vehicle
Mass (kg)
RCS (m²)

Purposes: comms

External: N2YO · Heavens-Above · Gunter

§ Orbital elements

Epoch: 2026-09-20T10:45:06.187392Z

Period
93.85 min
Inclination
53.1591°
Eccentricity
0.0003078
Mean motion
15.34396768 rev/d
Perigee alt
460.6 km
Apogee alt
464.8 km
Semi-major
6,840.8 km
B*
6.7040e-4
RAAN
169.6670°
Arg perigee
76.3702°
Mean anomaly
283.7643°
Rev number
4,529

§ Raw data

STARLINK-359431 66927U 25286C   26263.44798828  .00022341  00000+0  67040-3 0  99932 66927  53.1591 169.6670 0003078  76.3702 283.7643 15.34396768 45299

JSON: /api/v1/satellites/66927 · /tle

For live sub-satellite position, see the globe view (requires WebGL).

§ Visibility from observer

Set your observer location to see the next 7 days of passes ≥ 10°. The values pass through the URL so the page stays shareable.

No JS? Fill the form by hand. The geolocation button needs JavaScript.